Weather History for KLUA - August, 2014

Change the Weather History Date:

Friday, August 15, 2014

  Actual Average (KCHO) Record (KCHO)
Temperature  
Mean Temperature 64 °F 74 °F  
Max Temperature 78 °F 85 °F 101 °F (1988)
Min Temperature 50 °F 64 °F 50 °F (2013)
Degree Days  
Heating Degree Days 1 0  
Month to date heating degree days 0  
Since 1 June heating degree days 12  
Since 1 July heating degree days 1  
Cooling Degree Days 0 9  
Month to date cooling degree days 147  
Year to date cooling degree days 777  
Since 1 June cooling degree days 691  
Growing Degree Days 14 (Base 50)    
Moisture  
Dew Point 53 °F    
Average Humidity 70    
Maximum Humidity 100    
Minimum Humidity 39    
Precipitation  
Precipitation 0.00 in 0.12 in 2.15 in (1975)
Month to date precipitation 2.02  
Year to date precipitation 26.54  
Sea Level Pressure  
Sea Level Pressure 30.01 in    
Wind  
Wind Speed 2 mph (NW)    
Max Wind Speed 9 mph    
Max Gust Speed -    
Visibility 10 miles    
Events Fog    
T = Trace of Precipitation, MM = Missing Value Source: NWS Daily Summary

Daily Weather History Graph

Daily Weather History Graph

Search for Another Location

Airport or City:

Trip Planner

Search our weather history database for the weather conditions in past years. The results will help you decide how hot, cold, wet, or windy it might be!

Date:

Astronomy

Aug. 15, 2014 Rise Set
Actual Time 6:27 AM EDT 8:08 PM EDT
Civil Twilight 5:59 AM EDT 8:36 PM EDT
Nautical Twilight 5:25 AM EDT 9:10 PM EDT
Astronomical Twilight 4:48 AM EDT 9:47 PM EDT
Moon 11:13 PM EDT (8/15) 12:04 PM EDT (8/15)
Length of Visible Light 14h 37m
Length of Day
13h 40m
Waning Gibbous, 69% of the Moon is Illuminated
Aug 15
Waning Gibbous
Aug 17
Last Quarter
Aug 25
New
Sep 2
First Quarter
Sep 8
Full

Hourly Weather History & Observations

Time (EDT) Temp. Dew Point Humidity Pressure Visibility Wind Dir Wind Speed Gust Speed Precip Events Conditions
12:15 AM 59.0 °F 53.6 °F 82% 29.99 in 10.0 mi SSW 4.6 mph - N/A   Scattered Clouds
12:35 AM 59.0 °F 53.6 °F 82% 30.00 in 10.0 mi Calm Calm - N/A   Scattered Clouds
12:55 AM 57.2 °F 53.6 °F 88% 30.00 in 10.0 mi WSW 3.5 mph - N/A   Clear
1:15 AM 55.4 °F 55.4 °F 100% 30.01 in 10.0 mi East 4.6 mph - N/A   Clear
1:35 AM 55.4 °F 53.6 °F 94% 30.00 in 10.0 mi Calm Calm - N/A   Clear
1:55 AM 55.4 °F 53.6 °F 94% 30.00 in 10.0 mi Calm Calm - N/A   Clear
2:15 AM 55.4 °F 55.4 °F 100% 30.00 in 10.0 mi Calm Calm - N/A   Clear
2:35 AM 53.6 °F 53.6 °F 100% 30.00 in 10.0 mi South 3.5 mph - N/A   Clear
2:55 AM 53.6 °F 53.6 °F 100% 30.00 in 10.0 mi Calm Calm - N/A   Clear
3:15 AM 53.6 °F 53.6 °F 100% 30.00 in 10.0 mi Calm Calm - N/A   Clear
3:35 AM 53.6 °F 53.6 °F 100% 30.00 in 10.0 mi Calm Calm - N/A   Clear
3:55 AM 53.6 °F 53.6 °F 100% 30.01 in 10.0 mi Calm Calm - N/A   Clear
4:15 AM 51.8 °F 51.8 °F 100% 30.01 in 10.0 mi Calm Calm - N/A   Clear
4:35 AM 51.8 °F 51.8 °F 100% 30.01 in 10.0 mi Calm Calm - N/A   Clear
4:55 AM 51.8 °F 51.8 °F 100% 30.01 in 7.0 mi Calm Calm - N/A   Clear
5:15 AM 51.8 °F 51.8 °F 100% 30.01 in 5.0 mi Calm Calm - N/A   Scattered Clouds
5:35 AM 51.8 °F 51.8 °F 100% 30.02 in 10.0 mi Calm Calm - N/A   Scattered Clouds
5:55 AM 51.8 °F 51.8 °F 100% 30.02 in 10.0 mi Calm Calm - N/A   Clear
6:15 AM 51.8 °F 51.8 °F 100% 30.03 in 0.2 mi Calm Calm - N/A Fog Fog
6:35 AM 50.0 °F 50.0 °F 100% 30.03 in 7.0 mi Calm Calm - N/A   Unknown
6:55 AM 50.0 °F 50.0 °F 100% 30.04 in 4.0 mi Calm Calm - N/A   Mist
7:15 AM 51.8 °F 51.8 °F 100% 30.04 in 4.0 mi Calm Calm - N/A   Mist
7:35 AM 51.8 °F 51.8 °F 100% 30.04 in 10.0 mi Calm Calm - N/A   Clear
7:55 AM 55.4 °F 55.4 °F 100% 30.05 in 10.0 mi Calm Calm - N/A   Clear
8:15 AM 55.4 °F 55.4 °F 100% 30.05 in 10.0 mi Calm Calm - N/A   Clear
8:35 AM 57.2 °F 57.2 °F 100% 30.05 in 10.0 mi Calm Calm - N/A   Clear
8:55 AM 59.0 °F 55.4 °F 88% 30.06 in 10.0 mi Calm Calm - N/A   Clear
9:15 AM 60.8 °F 53.6 °F 77% 30.05 in 10.0 mi Calm Calm - N/A   Clear
9:35 AM 62.6 °F 53.6 °F 72% 30.05 in 10.0 mi Calm Calm - N/A   Clear
9:55 AM 66.2 °F 51.8 °F 60% 30.05 in 10.0 mi Calm Calm - N/A   Clear
10:15 AM 68.0 °F 51.8 °F 56% 30.05 in 10.0 mi ESE 3.5 mph - N/A   Clear
10:35 AM 68.0 °F 51.8 °F 56% 30.05 in 10.0 mi SSE 3.5 mph - N/A   Clear
10:55 AM 69.8 °F 51.8 °F 53% 30.05 in 10.0 mi Calm Calm - N/A   Clear
11:15 AM 71.6 °F 51.8 °F 50% 30.05 in 10.0 mi South 5.8 mph - N/A   Clear
11:35 AM 71.6 °F 51.8 °F 50% 30.05 in 10.0 mi Calm Calm - N/A   Clear
11:55 AM 71.6 °F 51.8 °F 50% 30.04 in 10.0 mi Calm Calm - N/A   Scattered Clouds
12:15 PM 73.4 °F 53.6 °F 50% 30.04 in 10.0 mi West 4.6 mph - N/A   Mostly Cloudy
12:35 PM 73.4 °F 53.6 °F 50% 30.03 in 10.0 mi West 6.9 mph - N/A   Mostly Cloudy
12:55 PM 75.2 °F 53.6 °F 47% 30.02 in 10.0 mi SSW 5.8 mph - N/A   Scattered Clouds
1:15 PM 77.0 °F 53.6 °F 44% 30.02 in 10.0 mi West 6.9 mph - N/A   Scattered Clouds
1:35 PM 77.0 °F 53.6 °F 44% 30.01 in 10.0 mi South 4.6 mph - N/A   Scattered Clouds
1:55 PM 77.0 °F 53.6 °F 44% 30.01 in 10.0 mi WSW 9.2 mph - N/A   Mostly Cloudy
2:15 PM 77.0 °F 53.6 °F 44% 30.01 in 10.0 mi SW 4.6 mph - N/A   Scattered Clouds
2:35 PM 78.8 °F 53.6 °F 42% 30.00 in 10.0 mi SE 3.5 mph - N/A   Scattered Clouds
2:55 PM 78.8 °F 53.6 °F 42% 29.99 in 10.0 mi SSW 4.6 mph - N/A   Mostly Cloudy
3:15 PM 78.8 °F 53.6 °F 42% 29.98 in 10.0 mi West 3.5 mph - N/A   Mostly Cloudy
3:35 PM 78.8 °F 55.4 °F 44% 29.98 in 10.0 mi SSW 4.6 mph - N/A   Mostly Cloudy
3:55 PM 78.8 °F 53.6 °F 42% 29.97 in 10.0 mi SSW 5.8 mph - N/A   Scattered Clouds
4:15 PM 78.8 °F 53.6 °F 42% 29.97 in 10.0 mi Calm Calm - N/A   Scattered Clouds
4:35 PM 78.8 °F 53.6 °F 42% 29.97 in 10.0 mi NW 3.5 mph - N/A   Scattered Clouds
4:55 PM 78.8 °F 53.6 °F 42% 29.97 in 10.0 mi Calm Calm - N/A   Scattered Clouds
5:15 PM 78.8 °F 53.6 °F 42% 29.97 in 10.0 mi NNE 4.6 mph - N/A   Scattered Clouds
5:35 PM 78.8 °F 53.6 °F 42% 29.97 in 10.0 mi NNW 4.6 mph - N/A   Scattered Clouds
5:55 PM 78.8 °F 51.8 °F 39% 29.96 in 7.0 mi North 4.6 mph - N/A   Clear
6:15 PM 78.8 °F 51.8 °F 39% 29.97 in 10.0 mi Calm Calm - N/A   Clear
6:35 PM 77.0 °F 53.6 °F 44% 29.96 in 10.0 mi North 3.5 mph - N/A   Clear
6:55 PM 77.0 °F 53.6 °F 44% 29.97 in 10.0 mi North 3.5 mph - N/A   Clear
7:15 PM 75.2 °F 59.0 °F 57% 29.97 in 10.0 mi North 3.5 mph - N/A   Clear
7:35 PM 73.4 °F 59.0 °F 61% 29.98 in 10.0 mi North 3.5 mph - N/A   Clear
7:55 PM 71.6 °F 55.4 °F 57% 29.99 in 10.0 mi NNE 6.9 mph - N/A   Scattered Clouds
8:15 PM 69.8 °F 51.8 °F 53% 29.99 in 10.0 mi North 5.8 mph - N/A   Mostly Cloudy
8:35 PM 69.8 °F 50.0 °F 49% 30.00 in 10.0 mi NNE 5.8 mph - N/A   Scattered Clouds
8:55 PM 68.0 °F 51.8 °F 56% 30.01 in 10.0 mi North 6.9 mph - N/A   Scattered Clouds
9:15 PM 66.2 °F 51.8 °F 60% 30.01 in 10.0 mi NE 4.6 mph - N/A   Mostly Cloudy
9:35 PM 66.2 °F 51.8 °F 60% 30.02 in 10.0 mi NNE 3.5 mph - N/A   Scattered Clouds
9:55 PM 64.4 °F 51.8 °F 64% 30.03 in 10.0 mi North 3.5 mph - N/A   Clear
10:15 PM 62.6 °F 51.8 °F 68% 30.03 in 10.0 mi Calm Calm - N/A   Clear
10:35 PM 62.6 °F 51.8 °F 68% 30.03 in 10.0 mi Calm Calm - N/A   Scattered Clouds
10:55 PM 60.8 °F 51.8 °F 72% 30.04 in 10.0 mi Calm Calm - N/A   Scattered Clouds
11:15 PM 60.8 °F 51.8 °F 72% 30.04 in 10.0 mi Calm Calm - N/A   Scattered Clouds
11:35 PM 59.0 °F 51.8 °F 77% 30.04 in 10.0 mi Calm Calm - N/A   Scattered Clouds
11:55 PM 59.0 °F 53.6 °F 82% 30.04 in 10.0 mi Calm Calm - N/A   Clear